N5CNB Weather Reports


Display with metric or nautical units.
time (UTC)temp
F
wind
direction
speed
MPH
gust
MPH
rain 1hr
in
rain 24hr
in
rain mn
in
humidity
%
barometer
mb
20260503201522 77 136 4.0 12.0 0.00 0.00 0.00 44 1020.6
20260503200024 77 89 7.0 13.0 0.00 0.00 0.00 44 1020.7
20260503194513 78 86 7.0 13.0 0.00 0.00 0.00 44 1021.0
20260503193022 78 158 5.0 13.0 0.00 0.00 0.00 43 1021.2
20260503191520 78 160 2.0 11.0 0.00 0.00 0.00 41 1021.5
20260503190027 77 198 6.0 14.0 0.00 0.00 0.00 40 1021.6
20260503184537 78 105 5.0 12.0 0.00 0.00 0.00 43 1021.7
20260503183012 77 245 3.0 8.0 0.00 0.00 0.00 42 1021.8
20260503181516 77 179 8.0 14.0 0.00 0.00 0.00 40 1022.1
20260503180024 77 333 3.0 11.0 0.00 0.00 0.00 42 1022.3
20260503174525 77 213 2.0 13.0 0.00 0.00 0.00 41 1022.7
20260503173044 77 141 5.0 8.0 0.00 0.00 0.00 48 1022.9
20260503171528 76 71 1.0 10.0 0.00 0.00 0.00 45 1023.2
20260503081523 51 356 0.0 0.0 0.00 0.00 0.00 92 1021.4
20260503071524 52 356 0.0 0.0 0.00 0.00 0.00 91 1021.6
20260503054532 53 356 0.0 0.0 0.00 0.00 0.00 90 1021.7
20260503053016 54 356 0.0 0.0 0.00 0.00 0.00 90 1021.9
20260503051521 54 356 0.0 0.0 0.00 0.00 0.00 90 1021.9
20260503050024 54 354 0.0 0.0 0.00 0.00 0.00 90 1021.6
20260503044525 54 353 0.0 0.0 0.00 0.00 0.00 90 1021.7
20260503043025 55 353 0.0 0.0 0.00 0.00 0.00 90 1021.6
20260503041518 55 354 0.0 0.0 0.00 0.00 0.00 89 1021.6
20260503040022 55 353 0.0 0.0 0.00 0.00 0.00 89 1021.3
20260503034537 56 354 0.0 0.0 0.00 0.00 0.00 89 1021.2
20260503033008 56 353 0.0 0.0 0.00 0.00 0.00 88 1021.3
20260503031510 57 353 0.0 0.0 0.00 0.00 0.00 88 1021.0
20260503030009 57 353 0.0 0.0 0.00 0.00 0.00 87 1020.7
20260503024506 58 354 0.0 0.0 0.00 0.00 0.00 87 1020.5
20260503023008 58 354 0.0 0.0 0.00 0.00 0.00 85 1020.6
20260503021509 59 354 0.0 0.0 0.00 0.00 0.00 84 1020.6
20260503020010 60 353 0.0 0.0 0.00 0.00 0.00 81 1020.4
20260503014515 61 353 0.0 0.0 0.00 0.00 0.00 79 1020.3
20260503013004 63 353 0.0 0.0 0.00 0.00 0.00 77 1020.3
20260503011509 65 353 0.0 0.0 0.00 0.00 0.00 73 1020.1
20260503010011 68 353 0.0 0.0 0.00 0.00 0.00 66 1019.8
20260503004509 71 353 0.0 0.0 0.00 0.00 0.00 59 1019.6
20260503003013 72 353 0.0 3.0 0.00 0.02 0.00 53 1019.6
20260503001504 73 86 0.0 6.0 0.00 0.03 0.00 51 1019.5
20260503000005 73 22 2.0 9.0 0.00 0.06 0.00 49 1019.5
20260502234512 73 354 1.0 8.0 0.00 0.07 0.00 50 1019.4
20260502233016 74 72 3.0 11.0 0.00 0.11 0.00 47 1019.3
20260502231518 74 335 2.0 11.0 0.00 0.14 0.00 48 1019.1
20260502230005 74 354 3.0 13.0 0.00 0.14 0.00 47 1019.3
20260502224510 74 33 5.0 12.0 0.00 0.15 0.00 48 1019.2
20260502223010 74 103 3.0 12.0 0.00 0.20 0.00 48 1019.2
20260502221513 74 3 4.0 16.0 0.00 0.20 0.00 47 1019.2
20260502220015 73 51 7.0 14.0 0.00 0.21 0.00 50 1019.2
20260502214507 73 51 7.0 15.0 0.00 0.27 0.00 50 1019.5
20260502213009 73 91 7.0 14.0 0.00 0.28 0.00 49 1019.6
20260502211523 73 69 6.0 12.0 0.00 0.28 0.00 51 1019.9
20260502210014 74 58 5.0 12.0 0.00 0.28 0.00 49 1020.1
20260502203007 74 101 3.0 10.0 0.00 0.29 0.00 52 1020.3